Vorticity
2 8 6 5 3 7 2 -2 1 6 19 1 7 5 2 6 16 6 8 7 7 -5
13 31 -34 42 0 1 2 3 5 3 2 7 8 7 3 9 7 11 9 10 1 -4
3 3 -9 6 0 2 4 1 6 3 8 7 8 5 7 5 8 7 12 11 10 15
10 8 5 1 6 3 2 4 5 7 8 5 7 6 5 4 4 7 13 6 6 4
9 2 12 5 -0 6 6 3 4 8 6 7 6 5 6 5 10 5 14 9 9 7
0 13 8 0 5 6 5 5 8 6 6 6 4 5 5 4 6 10 9 6 7 9
7 8 5 4 7 5 5 7 9 7 6 5 6 6 5 7 6 6 5 8 10 11
12 8 8 5 4 7 10 10 7 6 5 5 5 5 6 7 7 7 8 11 9 8
9 5 7 9 9 12 7 7 6 5 5 5 7 8 8 8 8 9 11 10 11 10
8 10 9 9 10 6 6 5 5 6 6 8 7 6 6 9 11 11 13 10 8 7
8 7 10 8 5 6 5 5 5 7 7 7 7 6 11 13 9 13 8 7 7 6
9 10 6 6 6 5 5 7 7 8 6 4 5 9 11 8 11 5 7 9 7 2
7 6 6 5 4 5 6 7 7 7 5 6 10 11 10 11 6 6 7 10 8 6
5 4 2 3 3 6 8 9 7 7 6 10 11 6 7 3 1 0 2 6 9 7
Height
5748 5746 5747 5745 5745 5744 5741 5746 5744 5742 5740 5736 5733 5732 5729 5726 5723 5720 5715 5711 5707 5701
5743 5741 5738 5739 5739 5738 5737 5738 5737 5735 5733 5731 5727 5724 5720 5717 5714 5710 5706 5701 5695 5689
5736 5735 5734 5729 5732 5732 5732 5730 5729 5728 5726 5722 5718 5715 5711 5707 5703 5699 5694 5689 5684 5677
5733 5730 5728 5727 5727 5726 5725 5724 5723 5721 5718 5715 5710 5706 5702 5697 5692 5687 5682 5676 5670 5662
5726 5726 5723 5721 5722 5720 5718 5716 5713 5710 5708 5704 5700 5695 5691 5686 5681 5676 5669 5663 5657 5650
5719 5717 5714 5714 5712 5710 5709 5707 5704 5700 5697 5693 5689 5685 5681 5676 5670 5665 5658 5650 5644 5637
5713 5708 5708 5706 5705 5703 5701 5698 5695 5691 5687 5684 5680 5675 5669 5664 5658 5651 5645 5639 5630 5622
5703 5702 5701 5699 5697 5694 5691 5688 5685 5681 5677 5673 5668 5662 5657 5651 5644 5639 5632 5623 5615 5607
5694 5693 5693 5691 5688 5686 5683 5679 5675 5671 5666 5662 5657 5650 5645 5640 5633 5626 5618 5610 5602 5593
5686 5684 5682 5680 5677 5674 5672 5669 5665 5661 5656 5651 5645 5639 5632 5625 5619 5611 5604 5597 5589 5580
5676 5674 5672 5670 5667 5664 5661 5657 5653 5648 5643 5637 5631 5624 5618 5611 5604 5597 5589 5581 5572 5565
5666 5665 5663 5660 5658 5654 5650 5646 5641 5635 5629 5623 5619 5611 5604 5596 5589 5581 5573 5565 5556 5547
5658 5656 5653 5651 5647 5643 5638 5633 5627 5621 5615 5609 5603 5596 5587 5579 5573 5566 5560 5550 5540 5530
5649 5646 5643 5639 5634 5630 5624 5618 5612 5606 5600 5593 5589 5581 5573 5565 5558 5552 5544 5535 5525 5513